FENGYUN 1C DEB

Satellite information

Favourite Embed

Satellite Type and Status

DEBRISIN ORBIT

Key statistics

Satellite FENGYUN 1C DEB at a glance.

Uptime

9665

Days in orbit

Revolutions

≈ 14.3

Per day

Orbit

SSO

Sun Synchronous Orbit

Inclination

98.9

Latest

Satellite identification and parameters

Extended collection of information and parameters for FENGYUN 1C DEB.

Object identification

Identified? True

Debris? True

Object name: FENGYUN 1C DEB

International designator: 1999-025BDE

Object number (NORAD): 31012

Object ID (CCSDS): 31012

Country: PEOPLES REPUBLIC OF CHINA (PRC)

Current information (Y/N): Y

RCS size: SMALL

Orbital parameters

Period: 100.856 minutes

Inclination: 98.9113 deg

SMA: 7177.3 km

Apoapsis: 858.878 km

Periapsis: 739.451 km

RAAN: 194.7872 deg

Eccentricy: 0.00831977

Argument of periapsis: 34.3698 deg

Mean anomaly: 26.94 deg

Mean motion: 14.27779512 rev/day

Mean motion (dot): 0.00000684 rev/day2

B* drag term: 0.00028495793 1/REarth

Two-line elements (TLE)

Creation date: Oct. 25, 2025, 3:11 a.m.

Reference frame: TEME

Reference center: EARTH

Epoch: Oct. 24, 2025, 4:08 p.m. UTC

TLE line 0: 0 FENGYUN 1C DEB

TLE line 1: 1 31012U 99025BDE 25297.67263656 .00000684 00000-0 28496-3 0 9998

TLE line 2: 2 31012 98.9113 194.7872 0083198 34.3698 26.9400 14.27779512970473

Live tracking on map

Real-time ground track for satellite FENGYUN 1C DEB.

In-orbit conjunctions

A list of the most updated potential collisions computed for object FENGYUN 1C DEB.

Target Orbit TCA Probability of collision Miss distance Type
CZ-4 DEB SSO 2025-07-14 18:40:31 0.0001161921 78.0 (m) DEBRIS
CZ-6A DEB SSO 2024-08-10 07:29:17 0.0001013803 253.0 (m) DEBRIS
FENGYUN 1C DEB SSO 2024-07-09 03:27:16 0.0001119567 162.0 (m) DEBRIS

Associated space launch

Chinese polar orbiting meteorological satellite

FENGYUN 1C DEB was lifted into orbit during the mission ‘Long March 4B | Feng Yun 1C’, on board a Long March 4B space rocket.

The launch took place on May 10, 1999, 1:33 a.m. from Launch Complex 7.

For more information about the launch, click the button.

Launch to space Long March 4B | Feng Yun 1C
Long March 4B | Feng Yun 1C

Agency: N/A

Status: Launch Successful

Launch date: May 10, 1999, 1:33 a.m. UTC

Rocket: Long March 4B

Launch pad: Launch Complex 7

Location: Taiyuan Satellite Launch Center, People's Republic of China

...

Latest news about this satellite

There are no fresh news available about this satellite. Check back as we update our databases every day.


Newsletter sign-up

Weekly statistics, charts and insights to help you stay on top of the space industry.